| time (UTC) | temp F | wind direction | speed MPH | gust MPH | rain 1hr in | rain 24hr in | rain mn in | humidity % | barometer mb |
| 20260506005009 | 72 | 134 | 1.0 | 6.0 | 0.00 | 0.00 | 0.00 | 55 | 1011.2 |
| 20260506004508 | 72 | 143 | 1.0 | 6.0 | 0.00 | 0.00 | 0.00 | 54 | 1011.1 |
| 20260506004011 | 73 | 175 | 3.0 | 6.0 | 0.00 | 0.00 | 0.00 | 54 | 1011.2 |
| 20260506003508 | 73 | 348 | 1.0 | 7.0 | 0.00 | 0.00 | 0.00 | 53 | 1011.2 |
| 20260506002510 | 73 | 98 | 2.0 | 8.0 | 0.00 | 0.00 | 0.00 | 52 | 1011.0 |
| 20260506001011 | 74 | 197 | 3.0 | 8.0 | 0.00 | 0.00 | 0.00 | 51 | 1010.7 |
| 20260506000509 | 74 | 277 | 3.0 | 13.0 | 0.00 | 0.00 | 0.00 | 51 | 1010.7 |
| 20260505235009 | 74 | 178 | 2.0 | 7.0 | 0.00 | 0.00 | 0.00 | 51 | 1010.3 |
| 20260505234509 | 75 | 158 | 1.0 | 10.0 | 0.00 | 0.00 | 0.00 | 51 | 1010.4 |
| 20260505234011 | 75 | 109 | 5.0 | 10.0 | 0.00 | 0.00 | 0.00 | 50 | 1010.3 |
| 20260505233509 | 75 | 156 | 3.0 | 8.0 | 0.00 | 0.00 | 0.00 | 51 | 1010.4 |
| 20260505232510 | 76 | 168 | 4.0 | 9.0 | 0.00 | 0.00 | 0.00 | 50 | 1010.2 |
| 20260505232010 | 76 | 138 | 3.0 | 7.0 | 0.00 | 0.00 | 0.00 | 50 | 1010.3 |
| 20260505231508 | 76 | 207 | 1.0 | 12.0 | 0.00 | 0.00 | 0.00 | 50 | 1010.2 |
| 20260505231013 | 77 | 157 | 5.0 | 12.0 | 0.00 | 0.00 | 0.00 | 50 | 1010.2 |
| 20260505230509 | 77 | 162 | 4.0 | 10.0 | 0.00 | 0.00 | 0.00 | 49 | 1010.1 |
| 20260505225508 | 77 | 148 | 3.0 | 6.0 | 0.00 | 0.00 | 0.00 | 48 | 1010.2 |
| 20260505224509 | 77 | 154 | 2.0 | 9.0 | 0.00 | 0.00 | 0.00 | 49 | 1010.0 |
| 20260505224009 | 78 | 109 | 4.0 | 9.0 | 0.00 | 0.00 | 0.00 | 49 | 1010.1 |
| 20260505223508 | 78 | 138 | 2.0 | 5.0 | 0.00 | 0.00 | 0.00 | 49 | 1010.0 |
| 20260505223010 | 78 | 207 | 2.0 | 6.0 | 0.00 | 0.00 | 0.00 | 48 | 1010.2 |
| 20260505222009 | 79 | 141 | 2.0 | 12.0 | 0.00 | 0.00 | 0.00 | 45 | 1010.3 |
| 20260505221509 | 79 | 255 | 4.0 | 12.0 | 0.00 | 0.00 | 0.00 | 43 | 1010.4 |
| 20260505221009 | 79 | 248 | 4.0 | 12.0 | 0.00 | 0.00 | 0.00 | 42 | 1010.4 |
| 20260505220508 | 80 | 202 | 3.0 | 12.0 | 0.00 | 0.00 | 0.00 | 41 | 1010.4 |
| 20260505220010 | 80 | 235 | 5.0 | 15.0 | 0.00 | 0.00 | 0.00 | 40 | 1010.2 |
| 20260505214508 | 81 | 155 | 6.0 | 12.0 | 0.00 | 0.00 | 0.00 | 39 | 1010.0 |
| 20260505214011 | 81 | 218 | 3.0 | 12.0 | 0.00 | 0.00 | 0.00 | 39 | 1010.1 |
| 20260505213509 | 81 | 114 | 5.0 | 14.0 | 0.00 | 0.00 | 0.00 | 40 | 1010.2 |
| 20260505213009 | 81 | 127 | 6.0 | 15.0 | 0.00 | 0.00 | 0.00 | 38 | 1010.3 |
| 20260505212009 | 81 | 159 | 5.0 | 10.0 | 0.00 | 0.00 | 0.00 | 39 | 1010.0 |
| 20260505211508 | 81 | 273 | 2.0 | 10.0 | 0.00 | 0.00 | 0.00 | 40 | 1010.1 |
| 20260505211011 | 81 | 229 | 3.0 | 13.0 | 0.00 | 0.00 | 0.00 | 39 | 1010.1 |
| 20260505210508 | 81 | 225 | 3.0 | 13.0 | 0.00 | 0.00 | 0.00 | 39 | 1010.1 |
| 20260505210012 | 81 | 198 | 5.0 | 14.0 | 0.00 | 0.00 | 0.00 | 38 | 1010.1 |
| 20260505205509 | 81 | 248 | 3.0 | 13.0 | 0.00 | 0.00 | 0.00 | 38 | 1010.0 |
| 20260505205008 | 81 | 242 | 5.0 | 15.0 | 0.00 | 0.00 | 0.00 | 38 | 1010.0 |
| 20260505204507 | 81 | 184 | 7.0 | 15.0 | 0.00 | 0.00 | 0.00 | 38 | 1010.0 |
| 20260505204009 | 81 | 18 | 4.0 | 15.0 | 0.00 | 0.00 | 0.00 | 38 | 1010.0 |
| 20260505203508 | 82 | 101 | 4.0 | 10.0 | 0.00 | 0.00 | 0.00 | 37 | 1010.1 |
| 20260505203008 | 81 | 310 | 4.0 | 14.0 | 0.00 | 0.00 | 0.00 | 38 | 1010.0 |
| 20260505202507 | 81 | 218 | 5.0 | 14.0 | 0.00 | 0.00 | 0.00 | 36 | 1010.0 |
| 20260505201507 | 82 | 286 | 2.0 | 13.0 | 0.00 | 0.00 | 0.00 | 36 | 1009.9 |
| 20260505201009 | 82 | 340 | 5.0 | 16.0 | 0.00 | 0.00 | 0.00 | 37 | 1009.9 |
| 20260505200508 | 82 | 137 | 4.0 | 12.0 | 0.00 | 0.00 | 0.00 | 35 | 1010.0 |
| 20260505200010 | 82 | 142 | 5.0 | 13.0 | 0.00 | 0.00 | 0.00 | 35 | 1009.9 |
| 20260505195507 | 82 | 115 | 5.0 | 13.0 | 0.00 | 0.00 | 0.00 | 35 | 1010.1 |
| 20260505195018 | 82 | 292 | 5.0 | 13.0 | 0.00 | 0.00 | 0.00 | 35 | 1010.1 |
| 20260505194508 | 83 | 81 | 2.0 | 13.0 | 0.00 | 0.00 | 0.00 | 37 | 1010.2 |
| 20260505194010 | 82 | 51 | 3.0 | 16.0 | 0.00 | 0.00 | 0.00 | 35 | 1010.1 |
| 20260505193507 | 83 | 232 | 4.0 | 16.0 | 0.00 | 0.00 | 0.00 | 35 | 1010.1 |
| 20260505192509 | 83 | 205 | 3.0 | 16.0 | 0.00 | 0.00 | 0.00 | 43 | 1010.2 |
| 20260505192009 | 82 | 155 | 3.0 | 16.0 | 0.00 | 0.00 | 0.00 | 36 | 1010.3 |
| 20260505191507 | 82 | 183 | 4.0 | 13.0 | 0.00 | 0.00 | 0.00 | 36 | 1010.3 |
| 20260505190507 | 82 | 134 | 4.0 | 20.0 | 0.00 | 0.00 | 0.00 | 39 | 1010.6 |
| 20260505190012 | 82 | 188 | 5.0 | 19.0 | 0.00 | 0.00 | 0.00 | 37 | 1010.7 |
| 20260505185509 | 82 | 190 | 5.0 | 19.0 | 0.00 | 0.00 | 0.00 | 38 | 1010.7 |
| 20260505185008 | 82 | 184 | 4.0 | 12.0 | 0.00 | 0.00 | 0.00 | 39 | 1010.8 |
| 20260505184508 | 82 | 103 | 4.0 | 12.0 | 0.00 | 0.00 | 0.00 | 39 | 1010.7 |
| 20260505184009 | 83 | 186 | 3.0 | 12.0 | 0.00 | 0.00 | 0.00 | 42 | 1010.7 |
| 20260505182509 | 82 | 51 | 3.0 | 10.0 | 0.00 | 0.00 | 0.00 | 41 | 1010.9 |
| 20260505182008 | 82 | 243 | 2.0 | 10.0 | 0.00 | 0.00 | 0.00 | 44 | 1011.1 |
| 20260505181508 | 82 | 223 | 3.0 | 12.0 | 0.00 | 0.00 | 0.00 | 45 | 1011.1 |
| 20260505181010 | 81 | 280 | 6.0 | 12.0 | 0.00 | 0.00 | 0.00 | 43 | 1011.0 |
| 20260505180508 | 81 | 169 | 3.0 | 12.0 | 0.00 | 0.00 | 0.00 | 44 | 1011.1 |
| 20260505180014 | 81 | 244 | 4.0 | 12.0 | 0.00 | 0.00 | 0.00 | 43 | 1011.2 |
| 20260505175509 | 81 | 146 | 4.0 | 11.0 | 0.00 | 0.00 | 0.00 | 45 | 1011.2 |
| 20260505175009 | 81 | 198 | 3.0 | 9.0 | 0.00 | 0.00 | 0.00 | 45 | 1011.1 |
| 20260505174508 | 81 | 245 | 3.0 | 11.0 | 0.00 | 0.00 | 0.00 | 46 | 1011.2 |
| 20260505173508 | 80 | 103 | 6.0 | 13.0 | 0.00 | 0.00 | 0.00 | 50 | 1011.3 |
| 20260505173009 | 81 | 169 | 4.0 | 9.0 | 0.00 | 0.00 | 0.00 | 47 | 1011.4 |
| 20260505172511 | 80 | 298 | 1.0 | 9.0 | 0.00 | 0.00 | 0.00 | 51 | 1011.5 |
| 20260505172009 | 80 | 112 | 5.0 | 10.0 | 0.00 | 0.00 | 0.00 | 49 | 1011.6 |
| 20260505171508 | 80 | 173 | 3.0 | 11.0 | 0.00 | 0.00 | 0.00 | 49 | 1011.7 |
| 20260505171010 | 79 | 169 | 6.0 | 11.0 | 0.00 | 0.00 | 0.00 | 51 | 1011.7 |
| 20260505170509 | 79 | 207 | 3.0 | 7.0 | 0.00 | 0.00 | 0.00 | 49 | 1011.8 |
| 20260505170012 | 79 | 52 | 2.0 | 9.0 | 0.00 | 0.00 | 0.00 | 51 | 1011.8 |
| 20260505165509 | 79 | 184 | 4.0 | 10.0 | 0.00 | 0.00 | 0.00 | 50 | 1011.9 |
| 20260505165011 | 79 | 185 | 3.0 | 11.0 | 0.00 | 0.00 | 0.00 | 50 | 1011.9 |
| 20260505164508 | 79 | 169 | 3.0 | 7.0 | 0.00 | 0.00 | 0.00 | 51 | 1011.9 |
| 20260505164010 | 78 | 152 | 3.0 | 9.0 | 0.00 | 0.00 | 0.00 | 50 | 1012.0 |
| 20260505163510 | 79 | 72 | 4.0 | 9.0 | 0.00 | 0.00 | 0.00 | 49 | 1012.0 |
| 20260505163010 | 79 | 178 | 2.0 | 8.0 | 0.00 | 0.00 | 0.00 | 53 | 1012.1 |
| 20260505162010 | 78 | 157 | 3.0 | 8.0 | 0.00 | 0.00 | 0.00 | 52 | 1012.1 |
| 20260505161509 | 78 | 213 | 4.0 | 10.0 | 0.00 | 0.00 | 0.00 | 51 | 1012.2 |
| 20260505153010 | 76 | 203 | 2.0 | 6.0 | 0.00 | 0.00 | 0.00 | 55 | 1012.6 |
| 20260505152510 | 76 | 115 | 2.0 | 6.0 | 0.00 | 0.00 | 0.00 | 54 | 1012.6 |
| 20260505152008 | 75 | 44 | 3.0 | 5.0 | 0.00 | 0.00 | 0.00 | 53 | 1012.6 |
| 20260505151507 | 75 | 184 | 3.0 | 6.0 | 0.00 | 0.00 | 0.00 | 54 | 1012.6 |
| 20260505140507 | 73 | 171 | 3.0 | 6.0 | 0.00 | 0.00 | 0.00 | 58 | 1012.8 |
| 20260505125010 | 66 | 253 | 1.0 | 5.0 | 0.00 | 0.00 | 0.00 | 65 | 1013.0 |
| 20260505124507 | 66 | 338 | 0.0 | 8.0 | 0.00 | 0.00 | 0.00 | 68 | 1013.0 |
| 20260505124008 | 65 | 340 | 1.0 | 8.0 | 0.00 | 0.00 | 0.00 | 68 | 1013.0 |
| 20260505123507 | 64 | 163 | 2.0 | 6.0 | 0.00 | 0.00 | 0.00 | 70 | 1012.8 |
| 20260505123010 | 63 | 296 | 2.0 | 6.0 | 0.00 | 0.00 | 0.00 | 71 | 1012.8 |
| 20260505122507 | 62 | 350 | 1.0 | 4.0 | 0.00 | 0.00 | 0.00 | 73 | 1012.8 |
| 20260505122008 | 62 | 187 | 1.0 | 4.0 | 0.00 | 0.00 | 0.00 | 75 | 1012.8 |
| 20260505121509 | 61 | 113 | 1.0 | 10.0 | 0.00 | 0.00 | 0.00 | 76 | 1012.8 |
| 20260505120508 | 60 | 194 | 1.0 | 3.0 | 0.00 | 0.00 | 0.00 | 79 | 1012.7 |
| 20260505120009 | 59 | 167 | 0.0 | 1.0 | 0.00 | 0.00 | 0.00 | 81 | 1012.6 |
| 20260505115506 | 58 | 162 | 0.0 | 4.0 | 0.00 | 0.00 | 0.00 | 83 | 1012.7 |
| 20260505115009 | 58 | 162 | 1.0 | 4.0 | 0.00 | 0.00 | 0.00 | 83 | 1012.7 |
| 20260505114506 | 57 | 134 | 1.0 | 4.0 | 0.00 | 0.00 | 0.00 | 85 | 1012.8 |
| 20260505114008 | 57 | 144 | 0.0 | 2.0 | 0.00 | 0.00 | 0.00 | 85 | 1012.6 |
| 20260505112507 | 56 | 144 | 0.0 | 1.0 | 0.00 | 0.00 | 0.00 | 87 | 1012.5 |
| 20260505111507 | 55 | 144 | 0.0 | 0.0 | 0.00 | 0.00 | 0.00 | 88 | 1012.4 |
| 20260505111007 | 55 | 144 | 0.0 | 3.0 | 0.00 | 0.00 | 0.00 | 88 | 1012.4 |
| 20260505110508 | 55 | 217 | 0.0 | 0.0 | 0.00 | 0.00 | 0.00 | 88 | 1012.2 |
| 20260505102016 | 55 | 217 | 0.0 | 0.0 | 0.00 | 0.00 | 0.00 | 87 | 1012.2 |
| 20260505101008 | 56 | 217 | 0.0 | 0.0 | 0.00 | 0.00 | 0.00 | 86 | 1012.1 |
| 20260505100508 | 56 | 217 | 0.0 | 2.0 | 0.00 | 0.00 | 0.00 | 86 | 1012.1 |
| 20260505100009 | 56 | 217 | 0.0 | 2.0 | 0.00 | 0.00 | 0.00 | 86 | 1011.9 |
| 20260505095508 | 56 | 217 | 0.0 | 0.0 | 0.00 | 0.00 | 0.00 | 86 | 1011.9 |
| 20260505095008 | 56 | 217 | 0.0 | 0.0 | 0.00 | 0.00 | 0.00 | 85 | 1011.9 |
| 20260505094507 | 56 | 217 | 0.0 | 0.0 | 0.00 | 0.00 | 0.00 | 85 | 1011.8 |
| 20260505094009 | 56 | 217 | 0.0 | 0.0 | 0.00 | 0.00 | 0.00 | 85 | 1011.9 |
| 20260505093507 | 57 | 217 | 0.0 | 0.0 | 0.00 | 0.00 | 0.00 | 85 | 1011.8 |
| 20260505093008 | 57 | 217 | 0.0 | 0.0 | 0.00 | 0.00 | 0.00 | 85 | 1011.8 |
| 20260505092009 | 57 | 217 | 0.0 | 0.0 | 0.00 | 0.00 | 0.00 | 85 | 1011.8 |
| 20260505091508 | 57 | 217 | 0.0 | 0.0 | 0.00 | 0.00 | 0.00 | 85 | 1011.8 |
| 20260505091008 | 57 | 217 | 0.0 | 1.0 | 0.00 | 0.00 | 0.00 | 85 | 1011.8 |
| 20260505090011 | 57 | 217 | 0.0 | 0.0 | 0.00 | 0.00 | 0.00 | 85 | 1011.9 |
| 20260505085506 | 57 | 217 | 0.0 | 0.0 | 0.00 | 0.00 | 0.00 | 86 | 1011.9 |
| 20260505085009 | 57 | 217 | 0.0 | 0.0 | 0.00 | 0.00 | 0.00 | 86 | 1011.9 |
| 20260505084506 | 57 | 218 | 0.0 | 0.0 | 0.00 | 0.00 | 0.00 | 86 | 1011.9 |
| 20260505083508 | 57 | 218 | 0.0 | 1.0 | 0.00 | 0.00 | 0.00 | 86 | 1011.7 |
| 20260505083008 | 56 | 218 | 0.0 | 5.0 | 0.00 | 0.00 | 0.00 | 86 | 1011.7 |
| 20260505082506 | 56 | 218 | 0.0 | 5.0 | 0.00 | 0.00 | 0.00 | 87 | 1011.7 |
| 20260505081507 | 56 | 220 | 0.0 | 1.0 | 0.00 | 0.00 | 0.00 | 87 | 1011.8 |
| 20260505081007 | 56 | 220 | 0.0 | 2.0 | 0.00 | 0.00 | 0.00 | 87 | 1011.8 |
| 20260505080508 | 56 | 219 | 0.0 | 1.0 | 0.00 | 0.00 | 0.00 | 87 | 1011.8 |
| 20260505075506 | 56 | 214 | 0.0 | 0.0 | 0.00 | 0.00 | 0.00 | 86 | 1011.8 |
| 20260505075009 | 56 | 214 | 0.0 | 0.0 | 0.00 | 0.00 | 0.00 | 86 | 1011.7 |
| 20260505074506 | 56 | 214 | 0.0 | 0.0 | 0.00 | 0.00 | 0.00 | 86 | 1011.8 |
| 20260505073508 | 56 | 214 | 0.0 | 0.0 | 0.00 | 0.00 | 0.00 | 85 | 1011.9 |
| 20260505073008 | 56 | 214 | 0.0 | 0.0 | 0.00 | 0.00 | 0.00 | 85 | 1011.9 |
| 20260505072507 | 56 | 214 | 0.0 | 0.0 | 0.00 | 0.00 | 0.00 | 84 | 1011.8 |
| 20260505072008 | 56 | 214 | 0.0 | 1.0 | 0.00 | 0.00 | 0.00 | 84 | 1011.9 |
| 20260505071506 | 56 | 214 | 0.0 | 1.0 | 0.00 | 0.00 | 0.00 | 83 | 1011.9 |
| 20260505071006 | 56 | 214 | 0.0 | 0.0 | 0.00 | 0.00 | 0.00 | 82 | 1011.9 |
| 20260505070507 | 56 | 214 | 0.0 | 0.0 | 0.00 | 0.00 | 0.00 | 81 | 1011.9 |
| 20260505070008 | 56 | 214 | 0.0 | 1.0 | 0.00 | 0.00 | 0.00 | 80 | 1011.9 |
| 20260505065507 | 56 | 214 | 0.0 | 3.0 | 0.00 | 0.00 | 0.00 | 79 | 1011.9 |
| 20260505065008 | 56 | 214 | 0.0 | 0.0 | 0.00 | 0.00 | 0.00 | 78 | 1011.8 |
| 20260505064507 | 56 | 214 | 0.0 | 0.0 | 0.00 | 0.00 | 0.00 | 78 | 1011.8 |
| 20260505063507 | 56 | 214 | 0.0 | 0.0 | 0.00 | 0.00 | 0.00 | 77 | 1011.9 |
| 20260505063007 | 56 | 214 | 0.0 | 0.0 | 0.00 | 0.00 | 0.00 | 77 | 1011.8 |
| 20260505062506 | 56 | 214 | 0.0 | 0.0 | 0.00 | 0.00 | 0.00 | 77 | 1011.8 |
| 20260505062008 | 57 | 214 | 0.0 | 0.0 | 0.00 | 0.00 | 0.00 | 77 | 1011.8 |
| 20260505061008 | 57 | 214 | 0.0 | 1.0 | 0.00 | 0.00 | 0.00 | 76 | 1011.9 |
| 20260505060506 | 57 | 214 | 0.0 | 0.0 | 0.00 | 0.00 | 0.00 | 75 | 1011.9 |
| 20260505060026 | 57 | 214 | 0.0 | 0.0 | 0.00 | 0.00 | 0.00 | 74 | 1011.9 |
| 20260505055506 | 57 | 214 | 0.0 | 0.0 | 0.00 | 0.00 | 0.00 | 73 | 1011.9 |
| 20260505055008 | 58 | 214 | 0.0 | 0.0 | 0.00 | 0.00 | 0.00 | 73 | 1011.9 |
| 20260505054507 | 58 | 214 | 0.0 | 0.0 | 0.00 | 0.00 | 0.00 | 72 | 1011.9 |
| 20260505053507 | 58 | 214 | 0.0 | 0.0 | 0.00 | 0.00 | 0.00 | 71 | 1011.9 |
| 20260505053009 | 58 | 214 | 0.0 | 0.0 | 0.00 | 0.00 | 0.00 | 71 | 1012.0 |
| 20260505052506 | 59 | 214 | 0.0 | 0.0 | 0.00 | 0.00 | 0.00 | 71 | 1012.0 |
| 20260505052007 | 59 | 214 | 0.0 | 0.0 | 0.00 | 0.00 | 0.00 | 70 | 1012.1 |
| 20260505051007 | 59 | 214 | 0.0 | 1.0 | 0.00 | 0.00 | 0.00 | 70 | 1012.2 |
| 20260505050506 | 59 | 214 | 0.0 | 1.0 | 0.00 | 0.00 | 0.00 | 69 | 1012.1 |
| 20260505041510 | 59 | 20 | 0.0 | 2.0 | 0.00 | 0.00 | 0.00 | 65 | 1011.9 |
| 20260505040508 | 59 | 188 | 0.0 | 1.0 | 0.00 | 0.00 | 0.00 | 64 | 1011.9 |
| 20260505040025 | 60 | 188 | 0.0 | 1.0 | 0.00 | 0.00 | 0.00 | 64 | 1011.9 |
| 20260505035508 | 60 | 188 | 0.0 | 1.0 | 0.00 | 0.00 | 0.00 | 64 | 1011.8 |
| 20260505035009 | 60 | 188 | 0.0 | 0.0 | 0.00 | 0.00 | 0.00 | 63 | 1011.8 |
| 20260505034509 | 60 | 188 | 0.0 | 0.0 | 0.00 | 0.00 | 0.00 | 63 | 1011.8 |
| 20260505034009 | 60 | 188 | 0.0 | 2.0 | 0.00 | 0.00 | 0.00 | 62 | 1011.9 |
| 20260505033508 | 60 | 188 | 0.0 | 3.0 | 0.00 | 0.00 | 0.00 | 62 | 1011.9 |
| 20260505033010 | 60 | 196 | 0.0 | 0.0 | 0.00 | 0.00 | 0.00 | 62 | 1011.9 |
| 20260505032508 | 60 | 196 | 0.0 | 0.0 | 0.00 | 0.00 | 0.00 | 62 | 1012.0 |
| 20260505032009 | 60 | 196 | 0.0 | 3.0 | 0.00 | 0.00 | 0.00 | 62 | 1011.9 |
| 20260505031510 | 60 | 217 | 0.0 | 2.0 | 0.00 | 0.00 | 0.00 | 62 | 1011.8 |
| 20260505031010 | 60 | 125 | 0.0 | 2.0 | 0.00 | 0.00 | 0.00 | 62 | 1011.9 |
| 20260505025508 | 60 | 157 | 1.0 | 2.0 | 0.00 | 0.00 | 0.00 | 63 | 1011.8 |
| 20260505024509 | 60 | 167 | 0.0 | 4.0 | 0.00 | 0.00 | 0.00 | 62 | 1012.1 |
| 20260505024009 | 60 | 196 | 1.0 | 4.0 | 0.00 | 0.00 | 0.00 | 62 | 1012.1 |
| 20260505023508 | 60 | 146 | 0.0 | 3.0 | 0.00 | 0.00 | 0.00 | 61 | 1012.1 |
| 20260505023011 | 60 | 137 | 0.0 | 0.0 | 0.00 | 0.00 | 0.00 | 61 | 1012.1 |
| 20260505022508 | 61 | 137 | 0.0 | 0.0 | 0.00 | 0.00 | 0.00 | 61 | 1012.1 |
| 20260505022018 | 61 | 137 | 0.0 | 0.0 | 0.00 | 0.00 | 0.00 | 61 | 1012.2 |
| 20260505020508 | 61 | 137 | 0.0 | 0.0 | 0.00 | 0.00 | 0.00 | 60 | 1012.2 |
| 20260505020018 | 61 | 137 | 0.0 | 2.0 | 0.00 | 0.00 | 0.00 | 59 | 1012.2 |
| 20260505015508 | 61 | 137 | 0.0 | 2.0 | 0.00 | 0.00 | 0.00 | 59 | 1012.2 |
| 20260505014508 | 62 | 134 | 0.0 | 1.0 | 0.00 | 0.00 | 0.00 | 59 | 1011.9 |
| 20260505014026 | 62 | 134 | 0.0 | 1.0 | 0.00 | 0.00 | 0.00 | 59 | 1012.0 |
| 20260505013508 | 62 | 132 | 0.0 | 0.0 | 0.00 | 0.00 | 0.00 | 59 | 1012.1 |
| 20260505013010 | 63 | 132 | 0.0 | 0.0 | 0.00 | 0.00 | 0.00 | 59 | 1012.2 |
| 20260505012010 | 63 | 132 | 0.0 | 0.0 | 0.00 | 0.00 | 0.00 | 58 | 1012.0 |
| 20260505011510 | 63 | 132 | 0.0 | 1.0 | 0.00 | 0.00 | 0.00 | 58 | 1011.9 |
| 20260505011018 | 63 | 132 | 0.0 | 1.0 | 0.00 | 0.00 | 0.00 | 58 | 1011.9 |
| 20260505010019 | 63 | 152 | 0.0 | 1.0 | 0.00 | 0.00 | 0.00 | 57 | 1011.7 |